Regional Weather Roundup
Issued by NWS Charleston, WV

Home | Current Version | Previous Version | Graphics & Text | Print | Product List | Glossary On
Versions: 1 2 3 4 5 6 7 8 9 10 11 12 13 14 15 16 17 18 19 20 21 22 23 24 25 26 27 28 29 30 31 32 33 34 35 36 37 38 39 40 41 42 43 44 45 46 47 48 49 50
000
ASUS41 KRLX 052110
RWRRLX
West Virginia Regional Weather Roundup
National Weather Service Charleston WV
500 PM EDT SUN JUL 05 2015

Note: "fair" indicates few or no clouds below 12,000 feet with no
significant weather and/or obstructions to visibility.

WVZ003-052200-
Northern Panhandle of West Virginia

CITY           SKY/WX    TMP DP  RH WIND       PRES   REMARKS
WHEELING       MOSUNNY   79  60  52 E7        30.10S
$$

WVZ009-052200-
Northwest West Virginia

CITY           SKY/WX    TMP DP  RH WIND       PRES   REMARKS
PARKERSBURG    CLOUDY    81  65  58 E5        30.09S
$$

WVZ006-052200-
Western West Virginia

CITY           SKY/WX    TMP DP  RH WIND       PRES   REMARKS
HUNTINGTON     CLOUDY    77  69  76 N5        30.05S
$$

WVZ015-052200-
West Central West Virginia

CITY           SKY/WX    TMP DP  RH WIND       PRES   REMARKS
CHARLESTON     PTSUNNY   77  71  82 VRB3      30.04S
$$

WVZ022-031-052200-
North Central West Virginia

CITY           SKY/WX    TMP DP  RH WIND       PRES   REMARKS
CLARKSBURG     PTSUNNY   75  69  81 E3        30.08F
MORGANTOWN     PTSUNNY   82  62  50 NE3       30.09F
$$

WVZ025-035-042-045-052200-
Southern West Virginia

CITY           SKY/WX    TMP DP  RH WIND       PRES   REMARKS
BECKLEY        MOSUNNY   75  66  73 SE14G25   30.11S
LOGAN          PTSUNNY   72  70  94 CALM      30.03S THUNDER
BLUEFIELD      MOSUNNY   78  67  68 E8        30.12F
LEWISBURG      LGT RAIN  76  65  68 E5        30.14S
$$

WVZ047-052200-
Northern Mountains of West Virginia

CITY           SKY/WX    TMP DP  RH WIND       PRES   REMARKS
ELKINS         PTSUNNY   81  67  62 VRB6      30.11F
$$

WVZ052-052200-
Eastern Panhandle of West Virginia

CITY           SKY/WX    TMP DP  RH WIND       PRES   REMARKS
MARTINSBURG    PTSUNNY   80  67  64 SE7       30.11F
PETERSBURG     CLOUDY    81  65  58 SE7       30.09F
$$


USA.gov is the U.S. government's official web portal to all federal, state and local government web resources and services.